Location: Chulloonawick
(62.9461°N, 164.1722°W)
Time: 18:36:27
(UTC+00:00)

OTV 5 (USA 277) - Pass Details

Date: 28 August 2019
Orbit: 310 x 324 km, 54.5° (Epoch: 08 October)

Event Time Altitude Azimuth Distance (km) Brightness Sun altitude
Rises 08:21:12 0° 232° (SW) 2,038 ? -11.3°
Reaches altitude 10° 08:23:48 10° 204° (SSW) 1,209 ? -11.5°
Enters shadow 08:24:21 12° 193° (SSW) 1,103 ? -11.5°
